This is the latest recevied weather packets stored in our database for station/object IZ5MMH-14. If no packets are shown the sender has not sent any weather packets the latest 10 day(s).
| Time | Temp. | Humidity | Pressure | Rain* | Wind** | Luminosity | Snow |
|---|---|---|---|---|---|---|---|
| 1777921800 | 21.11° C | 96% | 1017.2 hPa | - | - | - | - |
| 1777919400 | 21.67° C | 89% | 1016.9 hPa | - | - | - | - |
| 1777918200 | 22.22° C | 87% | 1017 hPa | - | - | - | - |
| 1777917600 | 22.22° C | 86% | 1017 hPa | - | - | - | - |
| 1777917000 | 22.22° C | 86% | 1017.1 hPa | - | - | - | - |
| 1777915800 | 22.22° C | 85% | 1017.2 hPa | - | - | - | - |
| 1777912800 | 22.22° C | 80% | 1017.3 hPa | - | - | - | - |
| 1777911600 | 22.22° C | 82% | 1017.3 hPa | - | - | - | - |
| 1777911000 | 22.22° C | 84% | 1017.3 hPa | - | - | - | - |
| 1777909200 | 22.78° C | 83% | 1017.4 hPa | - | - | - | - |
| 1777906800 | 22.78° C | 84% | 1017.6 hPa | - | - | - | - |
| 1777905600 | 22.78° C | 83% | 1017.7 hPa | - | - | - | - |
| 1777905000 | 22.78° C | 84% | 1017.8 hPa | - | - | - | - |
| 1777904400 | 22.78° C | 84% | 1017.9 hPa | - | - | - | - |
| 1777902600 | 22.78° C | 78% | 1017.9 hPa | - | - | - | - |
| 1777902000 | 22.78° C | 79% | 1018 hPa | - | - | - | - |
| 1777901400 | 22.78° C | 78% | 1017.9 hPa | - | - | - | - |
| 1777900800 | 22.78° C | 78% | 1018 hPa | - | - | - | - |
| 1777899000 | 23.33° C | 76% | 1018.2 hPa | - | - | - | - |
| 1777898400 | 22.78° C | 79% | 1018.2 hPa | - | - | - | - |
| 1777897800 | 23.33° C | 76% | 1018.4 hPa | - | - | - | - |
| 1777897199 | 23.33° C | 75% | 1018.4 hPa | - | - | - | - |
| 1777896600 | 23.33° C | 72% | 1018.5 hPa | - | - | - | - |
| 1777896000 | 23.33° C | 73% | 1018.3 hPa | - | - | - | - |
| 1777895400 | 23.33° C | 73% | 1018.3 hPa | - | - | - | - |
* Rain since midnight (hover to see other rain measurements)
** Current wind speed in m/s (hover to see current wind gust speed)